Retour au catalogue

SL-16 DEB

ActifLEO
NORAD 19659·DEBRIS·🇷🇺 Russia

Lancé Nov 23, 1988 depuis Baikonur Cosmodrome

Loading…

Prochains Passages (prochaines 24 heures)

TLE

FraisSource: Space-Track

Époque: Sep 14, 2026, 12:42 UTC

1 19659U 88102F   26257.52942424  .00000035  00000-0  68329-4 0  9993
2 19659  71.0355 201.3600 0184616 122.9406 355.0273 13.77421998899085

Suivez SL-16 DEB en temps réel avec AllMySat

Download on the App Store